Regional Weather Roundup
Issued by NWS Charleston, SC

Current Version | Previous Version | Graphics & Text | Print | Product List | Glossary On
Versions: 1 2 3 4 5 6 7 8 9 10 11 12 13 14 15 16 17 18 19 20 21 22 23 24 25 26 27 28 29 30 31 32 33 34 35 36 37 38 39 40 41 42 43 44 45 46 47 48 49 50
000
ASUS42 KCHS 201325
RWRCHS

REGIONAL WEATHER ROUNDUP
NATIONAL WEATHER SERVICE CHARLESTON SC
900 AM EDT SUN APR 20 2014

NOTE: "FAIR" INDICATES FEW OR NO CLOUDS BELOW 12,000 FEET WITH NO
SIGNIFICANT WEATHER AND/OR OBSTRUCTIONS TO VISIBILITY.

NOT ALL STATIONS ARE QUALITY CONTROLLED BY THE NATIONAL
WEATHER SERVICE. USE DATA WITH CAUTION...ESPECIALLY
DEWPOINT OBSERVATIONS.

SCZ027-030-031-034>040-042>050-201400-
...SOUTH CAROLINA...

CITY           SKY/WX    TMP DP  RH WIND       PRES   REMARKS
N CHARLESTON   CLOUDY    56  51  84 N13G20    30.07S
WATERFRONT PRK   N/A     55 N/A N/A N15         N/A
FORT JOHNSON     N/A     54  54 100 N13G20    30.11S
MOUNT PLEASANT CLOUDY   N/A N/A N/A N10G20    30.05S
JOHNS ISLAND   CLOUDY    55  55 100 N10       30.07R
PINOPOLIS        N/A     54  52  94 NE21      30.00F
MONCKS CORNER  CLOUDY    54  54 100 N9G17     30.09S
SUMMERVILLE    NOT AVBL
BEAUFORT MCAS  LGT RAIN  54  50  86 NE12      30.10R
BEAUFORT ARPT  CLOUDY    54  54 100 N10       30.09S
HILTON HEAD IS CLOUDY    54  52  94 N13G21    30.10
GEORGETOWN     NOT AVBL
WALTERBORO     CLOUDY    54 N/A N/A N6        30.12S
ORANGEBURG     CLOUDY    53  45  74 N13G20    30.15S
BARNWELL       CLOUDY    54  48  82 N12G18    30.17S
AIKEN          CLOUDY    54  50  87 N13       30.22R
MANNING        CLOUDY    54  54 100 N9G16     30.13S
KINGSTREE      NOT AVBL
COLUMBIA       CLOUDY    55  45  68 N7        30.18R
SUMTER         CLOUDY    54  44  71 N13       30.15R
FLORENCE       CLOUDY    53  43  68 N9        30.14S
MYRTLE BEACH   CLOUDY    54  46  76 N14G23    30.08R
N MYRTLE BEACH LGT RAIN  51  46  83 N15G24    30.07S

$$

GAZ063-065-086>088-099>101-113>116-118-119-134-136>141-150-201400-
...GEORGIA...

CITY           SKY/WX    TMP DP  RH WIND       PRES   REMARKS
SAVANNAH ARPT  LGT RAIN  54  50  86 N15       30.10S FOG
HUNTER AAF     CLOUDY    53  51  94 VRB7      30.07S
FORT STEWART   CLOUDY    53  53 100 N8        30.09R
STATESBORO     NOT AVBL
SYLVANIA       DRIZZLE   54  51  90 NE12G17   30.15R
CLAXTON        CLOUDY    54  54 100 N9        30.13R
THOMSON        CLOUDY    54  49  83 N12G17    30.25R
AUGUSTA-BUSH   CLOUDY    53  47  79 N9        30.19R
AUGUSTA-DANIEL CLOUDY    53  48  83 N10       30.19S
SWAINSBORO     CLOUDY    52  52 100 NE12G18   30.15S
VIDALIA        CLOUDY    52  50  93 NE9       30.15R
ALMA           CLOUDY    52  49  89 N7        30.13R FOG
WAYCROSS       NOT AVBL
JESUP          CLOUDY    52  52 100 NE6       30.11S FOG
BRUNSWICK      CLOUDY    54  54 100 N5        30.10R
SAINT SIMONS   LGT RAIN  54  53  97 NW9       30.09R FOG

$$

SCZ027-028-034-036>038-045-046-048>050-GAZ119-141-201400-
...LAKE AND SUPPLEMENTAL COASTAL OBSERVATIONS...

STATION/POSITION TIME  TEMP    WIND        PRES    WAVE   SWELL
                       AIR SEA DIR/SP/G            HT/PER HT/PER/DIR
                 (UTC) (F)     (DEG/KT/KT) (MB)    (FT/S) (FT/S/D)
UPR LAKE MARION  NOT AVBL
WINYAH BAY       1300   53      10/  9     1018.0S
LAKE MURRAY      1200   53      10/  4/  9 1021.7R
ACE BASIN NERRS  1300   54      10/  4     1018.0S
FORT PULASKI     1300   53 58  350/ 13/ 17 1019.1R
SAPELO ISLAND    1300   54     350/ 12     1018.0S

$$

ANZ835-935-AMZ111-154-330-350-352-354-374-450-454-472-201400-
...C-MAN AND BUOY OBSERVATIONS...

STATION/POSITION TIME  TEMP    WIND        PRES    WAVE   SWELL
                       AIR SEA DIR/SP/G            HT/PER HT/PER/DIR
                 (UTC) (F)     (DEG/KT/KT) (MB)    (FT/S) (FT/S/D)
FOLLY BEACH CMAN 1300   55     360/ 15/ 18 1018.1F
BUOY 41004       NOT AVBL
BUOY 41008       1300   57 63   20/ 21/ 25 1017.2R   6/ 5   2/ 80/11
5E ST. MARYS GA  1300      63                N/A     5/ 6   2/ 90/11
FRYING PAN BUOY  1300   60 69   20/ 29/ 35 1014.2R  11/ 9
BUOY 41025       1300   68 76   70/ 33/ 39 1014.7R  16/11  13/ 60/11
CAPE LOOKOUT NC  1300   56      10/ 22/ 26 1016.6F
BUOY 41002       NOT AVBL
BUOY 41010       1300   72 76  260/ 10/ 14 1013.6S   6/ 6   5/260/ 6
BUOY 41012       NOT AVBL
ST AUGUSTINE FL  1300   57     340/ 11/ 15 1018.7R
CAPERS NEARSHORE NOT AVBL
FRIPP NEARSHORE  1200   55      10/ 16/ 19   N/A


$$


USA.gov is the U.S. government's official web portal to all federal, state and local government web resources and services.